Time,TemperatureF,DewpointF,PressureIn,WindDirection,WindDirectionDegrees,WindSpeedMPH,WindSpeedGustMPH,Humidity,HourlyPrecipIn,Conditions,Clouds,dailyrainin,SoftwareType,DateUTC
2013-07-19 00:00:00,74.0,67.4,30.09,SW,225,1.0,3.0,80,0.00,,---,0.00,VWS V14.01,2013-07-19 04:00:00,
2013-07-19 00:01:00,74.0,67.4,30.09,SSE,158,1.0,1.0,80,0.00,,---,0.00,VWS V14.01,2013-07-19 04:01:00,
2013-07-19 00:02:00,74.0,67.4,30.10,SSE,158,3.0,3.0,80,0.00,,---,0.00,VWS V14.01,2013-07-19 04:02:00,
2013-07-19 00:03:00,74.0,67.4,30.09,SSW,202,2.0,3.0,80,0.00,,---,0.00,VWS V14.01,2013-07-19 04:03:00,
2013-07-19 00:08:00,74.0,67.4,30.09,SE,135,2.0,4.0,80,0.00,,---,0.00,VWS V14.01,2013-07-19 04:08:00,
2013-07-19 00:13:00,74.0,68.2,30.09,SE,135,3.0,5.0,82,0.00,,---,0.00,VWS V14.01,2013-07-19 04:13:00,
2013-07-19 00:18:00,74.0,68.2,30.08,SE,135,3.0,5.0,82,0.00,,---,0.00,VWS V14.01,2013-07-19 04:18:00,
2013-07-19 00:23:00,74.0,68.2,30.09,SE,135,2.0,3.0,82,0.00,,---,0.00,VWS V14.01,2013-07-19 04:23:00,
2013-07-19 00:28:00,74.0,68.2,30.08,SSE,158,2.0,3.0,82,0.00,,---,0.00,VWS V14.01,2013-07-19 04:28:00,
2013-07-19 00:34:00,74.0,68.2,30.08,South,180,0.0,3.0,82,0.00,,---,0.00,VWS V14.01,2013-07-19 04:34:00,
2013-07-19 00:39:00,74.0,68.2,30.08,West,270,0.0,3.0,82,0.00,,---,0.00,VWS V14.01,2013-07-19 04:39:00,
2013-07-19 00:44:00,74.0,68.5,30.08,WNW,292,1.0,2.0,83,0.00,,---,0.00,VWS V14.01,2013-07-19 04:44:00,
2013-07-19 00:49:00,73.0,67.9,30.08,WNW,292,0.0,3.0,84,0.00,,---,0.00,VWS V14.01,2013-07-19 04:49:00,
2013-07-19 00:54:00,73.0,67.9,30.08,West,270,1.0,3.0,84,0.00,,---,0.00,VWS V14.01,2013-07-19 04:54:00,
2013-07-19 00:59:00,73.0,67.9,30.08,WSW,248,1.0,3.0,84,0.00,,---,0.00,VWS V14.01,2013-07-19 04:59:00,
2013-07-19 01:04:00,73.0,68.6,30.08,West,270,2.0,3.0,86,0.00,,---,0.00,VWS V14.01,2013-07-19 05:04:00,
2013-07-19 01:09:00,73.0,68.6,30.08,WSW,248,1.0,3.0,86,0.00,,---,0.00,VWS V14.01,2013-07-19 05:09:00,
2013-07-19 01:14:00,73.0,68.9,30.08,SW,225,3.0,4.0,87,0.00,,---,0.00,VWS V14.01,2013-07-19 05:14:00,
2013-07-19 01:19:00,73.0,68.9,30.08,SW,225,1.0,4.0,87,0.00,,---,0.00,VWS V14.01,2013-07-19 05:19:00,
2013-07-19 01:24:00,73.0,68.9,30.08,WNW,292,3.0,3.0,87,0.00,,---,0.00,VWS V14.01,2013-07-19 05:24:00,
2013-07-19 01:29:00,73.0,69.2,30.08,SW,225,3.0,5.0,88,0.00,,---,0.00,VWS V14.01,2013-07-19 05:29:00,
2013-07-19 01:35:00,73.0,69.2,30.08,WSW,248,4.0,5.0,88,0.00,,---,0.00,VWS V14.01,2013-07-19 05:35:00,
2013-07-19 01:40:00,73.0,68.9,30.08,West,270,3.0,6.0,87,0.00,,---,0.00,VWS V14.01,2013-07-19 05:40:00,
2013-07-19 01:45:00,74.0,69.9,30.07,WNW,292,5.0,6.0,87,0.00,,---,0.00,VWS V14.01,2013-07-19 05:45:00,
2013-07-19 01:50:00,74.0,69.6,30.07,SW,225,3.0,6.0,86,0.00,,---,0.00,VWS V14.01,2013-07-19 05:50:00,
2013-07-19 01:55:00,74.0,69.6,30.07,WSW,248,4.0,6.0,86,0.00,,---,0.00,VWS V14.01,2013-07-19 05:55:00,
2013-07-19 02:00:00,74.0,69.6,30.06,West,270,1.0,7.0,86,0.00,,---,0.00,VWS V14.01,2013-07-19 06:00:00,
2013-07-19 02:05:00,74.0,69.6,30.07,NW,315,1.0,3.0,86,0.00,,---,0.00,VWS V14.01,2013-07-19 06:05:00,
2013-07-19 02:10:00,74.0,69.9,30.06,WNW,292,1.0,3.0,87,0.00,,---,0.00,VWS V14.01,2013-07-19 06:10:00,
2013-07-19 02:15:00,74.0,69.9,30.06,SW,225,2.0,3.0,87,0.00,,---,0.00,VWS V14.01,2013-07-19 06:15:00,
2013-07-19 02:20:00,74.0,69.9,30.06,WNW,292,2.0,5.0,87,0.00,,---,0.00,VWS V14.01,2013-07-19 06:20:00,
2013-07-19 02:25:00,74.0,69.9,30.06,West,270,1.0,6.0,87,0.00,,---,0.00,VWS V14.01,2013-07-19 06:25:00,
2013-07-19 02:31:00,73.0,68.9,30.06,WNW,292,3.0,6.0,87,0.00,,---,0.00,VWS V14.01,2013-07-19 06:31:00,
2013-07-19 02:36:00,74.0,69.9,30.06,SW,225,1.0,6.0,87,0.00,,---,0.00,VWS V14.01,2013-07-19 06:36:00,
2013-07-19 02:41:00,74.0,69.9,30.06,SW,225,3.0,5.0,87,0.00,,---,0.00,VWS V14.01,2013-07-19 06:41:00,
2013-07-19 02:46:00,73.0,68.9,30.06,WSW,248,2.0,5.0,87,0.00,,---,0.00,VWS V14.01,2013-07-19 06:46:00,
2013-07-19 02:51:00,73.0,68.6,30.05,WSW,248,2.0,5.0,86,0.00,,---,0.00,VWS V14.01,2013-07-19 06:51:00,
2013-07-19 02:56:00,74.0,69.6,30.05,SSW,202,5.0,10.0,86,0.00,,---,0.00,VWS V14.01,2013-07-19 06:56:00,
2013-07-19 03:01:00,75.0,69.8,30.05,WSW,248,3.0,6.0,84,0.00,,---,0.00,VWS V14.01,2013-07-19 07:01:00,
2013-07-19 03:06:00,75.0,69.5,30.05,SSW,202,5.0,7.0,83,0.00,,---,0.00,VWS V14.01,2013-07-19 07:06:00,
2013-07-19 03:11:00,75.0,69.5,30.05,South,180,5.0,9.0,83,0.00,,---,0.00,VWS V14.01,2013-07-19 07:11:00,
2013-07-19 03:16:00,75.0,69.5,30.05,SSW,202,8.0,11.0,83,0.00,,---,0.00,VWS V14.01,2013-07-19 07:16:00,
2013-07-19 03:21:00,74.0,68.5,30.05,South,180,5.0,8.0,83,0.00,,---,0.00,VWS V14.01,2013-07-19 07:21:00,
2013-07-19 03:26:00,74.0,68.9,30.05,SW,225,4.0,8.0,84,0.00,,---,0.00,VWS V14.01,2013-07-19 07:26:00,
2013-07-19 03:32:00,74.0,68.9,30.04,South,180,3.0,8.0,84,0.00,,---,0.00,VWS V14.01,2013-07-19 07:32:00,
2013-07-19 03:37:00,74.0,69.2,30.04,SSE,158,5.0,9.0,85,0.00,,---,0.00,VWS V14.01,2013-07-19 07:37:00,
2013-07-19 03:42:00,74.0,69.2,30.04,SW,225,8.0,9.0,85,0.00,,---,0.00,VWS V14.01,2013-07-19 07:42:00,
2013-07-19 03:47:00,74.0,69.6,30.04,South,180,6.0,9.0,86,0.00,,---,0.00,VWS V14.01,2013-07-19 07:47:00,
2013-07-19 03:52:00,74.0,69.6,30.04,SW,225,4.0,11.0,86,0.00,,---,0.00,VWS V14.01,2013-07-19 07:52:00,
2013-07-19 03:57:00,74.0,69.9,30.03,South,180,1.0,11.0,87,0.00,,---,0.00,VWS V14.01,2013-07-19 07:57:00,
2013-07-19 04:02:00,74.0,69.9,30.04,South,180,5.0,12.0,87,0.00,,---,0.00,VWS V14.01,2013-07-19 08:02:00,
2013-07-19 04:07:00,74.0,69.9,30.03,SE,135,5.0,12.0,87,0.00,,---,0.00,VWS V14.01,2013-07-19 08:07:00,
2013-07-19 04:12:00,73.0,68.9,30.03,South,180,3.0,12.0,87,0.00,,---,0.00,VWS V14.01,2013-07-19 08:12:00,
2013-07-19 04:17:00,73.0,69.2,30.03,WSW,248,6.0,12.0,88,0.00,,---,0.00,VWS V14.01,2013-07-19 08:17:00,
2013-07-19 04:22:00,73.0,69.2,30.03,SSW,202,4.0,8.0,88,0.00,,---,0.00,VWS V14.01,2013-07-19 08:22:00,
2013-07-19 04:27:00,73.0,69.2,30.03,WSW,248,6.0,8.0,88,0.00,,---,0.00,VWS V14.01,2013-07-19 08:27:00,
2013-07-19 04:33:00,73.0,69.2,30.02,SW,225,3.0,8.0,88,0.00,,---,0.00,VWS V14.01,2013-07-19 08:33:00,
2013-07-19 04:38:00,73.0,69.6,30.02,SW,225,5.0,8.0,89,0.00,,---,0.00,VWS V14.01,2013-07-19 08:38:00,
2013-07-19 04:43:00,73.0,69.6,30.02,West,270,3.0,7.0,89,0.00,,---,0.00,VWS V14.01,2013-07-19 08:43:00,
2013-07-19 04:48:00,73.0,69.6,30.02,WSW,248,3.0,8.0,89,0.00,,---,0.00,VWS V14.01,2013-07-19 08:48:00,
2013-07-19 04:53:00,73.0,69.6,30.02,SW,225,4.0,9.0,89,0.00,,---,0.00,VWS V14.01,2013-07-19 08:53:00,
2013-07-19 04:58:00,73.0,69.6,30.02,WSW,248,6.0,9.0,89,0.00,,---,0.00,VWS V14.01,2013-07-19 08:58:00,
2013-07-19 05:03:00,73.0,69.6,30.02,SSW,202,3.0,8.0,89,0.00,,---,0.00,VWS V14.01,2013-07-19 09:03:00,
2013-07-19 05:08:00,73.0,69.9,30.01,SW,225,5.0,9.0,90,0.00,,---,0.00,VWS V14.01,2013-07-19 09:08:00,
2013-07-19 05:13:00,73.0,69.6,30.02,SW,225,9.0,11.0,89,0.00,,---,0.00,VWS V14.01,2013-07-19 09:13:00,
2013-07-19 05:18:00,73.0,69.6,30.02,SW,225,7.0,11.0,89,0.00,,---,0.00,VWS V14.01,2013-07-19 09:18:00,
2013-07-19 05:24:00,74.0,70.6,30.02,SW,225,3.0,10.0,89,0.00,,---,0.00,VWS V14.01,2013-07-19 09:24:00,
2013-07-19 05:29:00,74.0,70.2,30.02,South,180,5.0,11.0,88,0.00,,---,0.00,VWS V14.01,2013-07-19 09:29:00,
2013-07-19 05:34:00,74.0,70.2,30.02,SW,225,8.0,11.0,88,0.00,,---,0.00,VWS V14.01,2013-07-19 09:34:00,
2013-07-19 05:39:00,74.0,70.2,30.02,SW,225,6.0,11.0,88,0.00,,---,0.00,VWS V14.01,2013-07-19 09:39:00,
2013-07-19 05:44:00,74.0,70.2,30.02,SW,225,7.0,11.0,88,0.00,,---,0.00,VWS V14.01,2013-07-19 09:44:00,
2013-07-19 05:49:00,74.0,70.2,30.02,WSW,248,6.0,11.0,88,0.00,,---,0.00,VWS V14.01,2013-07-19 09:49:00,
2013-07-19 05:54:00,74.0,70.2,30.02,SSW,202,6.0,11.0,88,0.00,,---,0.00,VWS V14.01,2013-07-19 09:54:00,
2013-07-19 05:59:00,74.0,70.2,30.02,SW,225,3.0,11.0,88,0.00,,---,0.00,VWS V14.01,2013-07-19 09:59:00,
2013-07-19 06:04:00,74.0,70.2,30.02,West,270,5.0,9.0,88,0.00,,---,0.00,VWS V14.01,2013-07-19 10:04:00,
2013-07-19 06:09:00,74.0,70.2,30.02,SW,225,5.0,10.0,88,0.00,,---,0.00,VWS V14.01,2013-07-19 10:09:00,
2013-07-19 06:14:00,74.0,70.2,30.02,SW,225,6.0,11.0,88,0.00,,---,0.00,VWS V14.01,2013-07-19 10:14:00,
2013-07-19 06:20:00,74.0,70.2,30.02,WSW,248,9.0,11.0,88,0.00,,---,0.00,VWS V14.01,2013-07-19 10:20:00,
2013-07-19 06:25:00,74.0,70.2,30.02,SW,225,6.0,10.0,88,0.00,,---,0.00,VWS V14.01,2013-07-19 10:25:00,
2013-07-19 06:30:00,74.0,70.2,30.02,WSW,248,5.0,10.0,88,0.00,,---,0.00,VWS V14.01,2013-07-19 10:30:00,
2013-07-19 06:35:00,74.0,70.2,30.02,SW,225,7.0,10.0,88,0.00,,---,0.00,VWS V14.01,2013-07-19 10:35:00,
2013-07-19 06:40:00,74.0,70.2,30.01,SW,225,7.0,10.0,88,0.00,,---,0.00,VWS V14.01,2013-07-19 10:40:00,
2013-07-19 06:45:00,74.0,69.9,30.02,SW,225,5.0,7.0,87,0.00,,---,0.00,VWS V14.01,2013-07-19 10:45:00,
2013-07-19 06:50:00,74.0,69.9,30.01,SW,225,5.0,9.0,87,0.00,,---,0.00,VWS V14.01,2013-07-19 10:50:00,
2013-07-19 06:55:00,74.0,69.9,30.01,SW,225,6.0,9.0,87,0.00,,---,0.00,VWS V14.01,2013-07-19 10:55:00,
2013-07-19 07:01:00,74.0,69.9,30.01,SSW,202,5.0,7.0,87,0.00,,---,0.00,VWS V14.01,2013-07-19 11:01:00,
2013-07-19 07:06:00,75.0,70.9,30.01,SSW,202,6.0,9.0,87,0.00,,---,0.00,VWS V14.01,2013-07-19 11:06:00,
2013-07-19 07:11:00,75.0,70.9,30.01,SW,225,4.0,10.0,87,0.00,,---,0.00,VWS V14.01,2013-07-19 11:11:00,
2013-07-19 07:16:00,75.0,70.9,30.01,SW,225,5.0,11.0,87,0.00,,---,0.00,VWS V14.01,2013-07-19 11:16:00,
2013-07-19 07:21:00,75.0,70.5,30.02,SW,225,6.0,11.0,86,0.00,,---,0.00,VWS V14.01,2013-07-19 11:21:00,
2013-07-19 07:26:00,76.0,71.5,30.02,SW,225,7.0,11.0,86,0.00,,---,0.00,VWS V14.01,2013-07-19 11:26:00,
2013-07-19 07:31:00,76.0,71.2,30.02,West,270,11.0,12.0,85,0.00,,---,0.00,VWS V14.01,2013-07-19 11:31:00,
2013-07-19 07:36:00,76.0,71.2,30.01,SW,225,6.0,13.0,85,0.00,,---,0.00,VWS V14.01,2013-07-19 11:36:00,
2013-07-19 07:41:00,76.0,70.8,30.01,SW,225,10.0,13.0,84,0.00,,---,0.00,VWS V14.01,2013-07-19 11:41:00,
2013-07-19 07:47:00,76.0,70.5,30.01,WSW,248,6.0,15.0,83,0.00,,---,0.00,VWS V14.01,2013-07-19 11:47:00,
2013-07-19 07:52:00,77.0,71.4,30.01,WSW,248,8.0,15.0,83,0.00,,---,0.00,VWS V14.01,2013-07-19 11:52:00,
2013-07-19 07:57:00,77.0,71.1,30.01,SW,225,11.0,15.0,82,0.00,,---,0.00,VWS V14.01,2013-07-19 11:57:00,
2013-07-19 08:02:00,77.0,71.1,30.01,WSW,248,11.0,13.0,82,0.00,,---,0.00,VWS V14.01,2013-07-19 12:02:00,
2013-07-19 08:07:00,77.0,70.7,30.01,West,270,11.0,15.0,81,0.00,,---,0.00,VWS V14.01,2013-07-19 12:07:00,
2013-07-19 08:12:00,78.0,71.3,30.02,West,270,11.0,16.0,80,0.00,,---,0.00,VWS V14.01,2013-07-19 12:12:00,
2013-07-19 08:17:00,78.0,71.3,30.02,SW,225,10.0,16.0,80,0.00,,---,0.00,VWS V14.01,2013-07-19 12:17:00,
2013-07-19 08:22:00,78.0,71.3,30.02,SW,225,10.0,13.0,80,0.00,,---,0.00,VWS V14.01,2013-07-19 12:22:00,
2013-07-19 08:27:00,78.0,71.3,30.02,WSW,248,8.0,14.0,80,0.00,,---,0.00,VWS V14.01,2013-07-19 12:27:00,
2013-07-19 08:32:00,78.0,71.3,30.02,WNW,292,10.0,16.0,80,0.00,,---,0.00,VWS V14.01,2013-07-19 12:32:00,
2013-07-19 08:38:00,79.0,72.3,30.01,West,270,11.0,16.0,80,0.00,,---,0.00,VWS V14.01,2013-07-19 12:38:00,
2013-07-19 08:43:00,79.0,71.9,30.01,SW,225,11.0,13.0,79,0.00,,---,0.00,VWS V14.01,2013-07-19 12:43:00,
2013-07-19 08:48:00,79.0,71.9,30.02,WSW,248,10.0,14.0,79,0.00,,---,0.00,VWS V14.01,2013-07-19 12:48:00,
2013-07-19 08:53:00,79.0,71.6,30.02,WSW,248,9.0,14.0,78,0.00,,---,0.00,VWS V14.01,2013-07-19 12:53:00,
2013-07-19 08:58:00,80.0,72.5,30.02,WSW,248,7.0,15.0,78,0.00,,---,0.00,VWS V14.01,2013-07-19 12:58:00,
2013-07-19 09:03:00,80.0,71.8,30.02,WSW,248,10.0,13.0,76,0.00,,---,0.00,VWS V14.01,2013-07-19 13:03:00,
2013-07-19 09:08:00,80.0,71.4,30.02,West,270,12.0,18.0,75,0.00,,---,0.00,VWS V14.01,2013-07-19 13:08:00,
2013-07-19 09:13:00,80.0,71.4,30.02,West,270,5.0,18.0,75,0.00,,---,0.00,VWS V14.01,2013-07-19 13:13:00,
2013-07-19 09:19:00,81.0,72.3,30.02,WSW,248,3.0,18.0,75,0.00,,---,0.00,VWS V14.01,2013-07-19 13:19:00,
2013-07-19 09:24:00,81.0,71.1,30.02,SW,225,11.0,18.0,72,0.00,,---,0.00,VWS V14.01,2013-07-19 13:24:00,
2013-07-19 09:26:00,81.0,71.5,30.02,WSW,248,9.0,18.0,73,0.00,,---,0.00,VWS V14.01,2013-07-19 13:26:00,
2013-07-19 09:31:00,81.0,70.7,30.02,WSW,248,14.0,18.0,71,0.00,,---,0.00,VWS V14.01,2013-07-19 13:31:00,
2013-07-19 09:36:00,82.0,72.1,30.02,WSW,248,8.0,18.0,72,0.00,,---,0.00,VWS V14.01,2013-07-19 13:36:00,
2013-07-19 09:41:00,82.0,71.7,30.02,WSW,248,10.0,11.0,71,0.00,,---,0.00,VWS V14.01,2013-07-19 13:41:00,
2013-07-19 09:47:00,82.0,71.7,30.02,SW,225,11.0,16.0,71,0.00,,---,0.00,VWS V14.01,2013-07-19 13:47:00,
2013-07-19 09:52:00,83.0,72.2,30.02,WSW,248,11.0,16.0,70,0.00,,---,0.00,VWS V14.01,2013-07-19 13:52:00,
2013-07-19 09:57:00,83.0,71.8,30.02,WSW,248,12.0,17.0,69,0.00,,---,0.00,VWS V14.01,2013-07-19 13:57:00,
2013-07-19 10:02:00,83.0,71.8,30.02,WSW,248,7.0,14.0,69,0.00,,---,0.00,VWS V14.01,2013-07-19 14:02:00,
2013-07-19 10:07:00,83.0,70.9,30.02,WSW,248,13.0,16.0,67,0.00,,---,0.00,VWS V14.01,2013-07-19 14:07:00,
2013-07-19 10:12:00,83.0,70.9,30.01,WSW,248,8.0,16.0,67,0.00,,---,0.00,VWS V14.01,2013-07-19 14:12:00,
2013-07-19 10:17:00,84.0,71.4,30.01,SW,225,10.0,18.0,66,0.00,,---,0.00,VWS V14.01,2013-07-19 14:17:00,
2013-07-19 10:22:00,84.0,71.4,30.02,WSW,248,12.0,17.0,66,0.00,,---,0.00,VWS V14.01,2013-07-19 14:22:00,
2013-07-19 10:28:00,84.0,71.0,30.01,WNW,292,8.0,17.0,65,0.00,,---,0.00,VWS V14.01,2013-07-19 14:28:00,
2013-07-19 10:33:00,84.0,70.5,30.01,WNW,292,6.0,18.0,64,0.00,,---,0.00,VWS V14.01,2013-07-19 14:33:00,
2013-07-19 10:38:00,84.0,70.1,30.01,SW,225,18.0,23.0,63,0.00,,---,0.00,VWS V14.01,2013-07-19 14:38:00,
2013-07-19 10:43:00,85.0,71.0,30.01,WNW,292,8.0,14.0,63,0.00,,---,0.00,VWS V14.01,2013-07-19 14:43:00,
2013-07-19 10:48:00,85.0,71.0,30.01,WSW,248,6.0,14.0,63,0.00,,---,0.00,VWS V14.01,2013-07-19 14:48:00,
2013-07-19 10:53:00,85.0,69.6,30.01,SW,225,14.0,23.0,60,0.00,,---,0.00,VWS V14.01,2013-07-19 14:53:00,
2013-07-19 10:58:00,85.0,70.5,30.01,WSW,248,12.0,23.0,62,0.00,,---,0.00,VWS V14.01,2013-07-19 14:58:00,
2013-07-19 11:03:00,85.0,71.0,30.01,WSW,248,17.0,20.0,63,0.00,,---,0.00,VWS V14.01,2013-07-19 15:03:00,
2013-07-19 11:08:00,85.0,70.1,30.01,West,270,15.0,20.0,61,0.00,,---,0.00,VWS V14.01,2013-07-19 15:08:00,
2013-07-19 11:14:00,85.0,71.0,30.01,West,270,13.0,20.0,63,0.00,,---,0.00,VWS V14.01,2013-07-19 15:14:00,
2013-07-19 11:19:00,86.0,71.5,30.01,SW,225,10.0,20.0,62,0.00,,---,0.00,VWS V14.01,2013-07-19 15:19:00,
2013-07-19 11:20:00,85.0,69.6,30.01,West,270,13.0,16.0,60,0.00,,---,0.00,VWS V14.01,2013-07-19 15:20:00,
2013-07-19 11:26:00,85.0,69.6,30.01,WSW,248,11.0,19.0,60,0.00,,---,0.00,VWS V14.01,2013-07-19 15:26:00,
2013-07-19 11:31:00,86.0,71.5,30.01,WNW,292,5.0,19.0,62,0.00,,---,0.00,VWS V14.01,2013-07-19 15:31:00,
2013-07-19 11:36:00,86.0,70.0,30.00,WNW,292,11.0,19.0,59,0.00,,---,0.00,VWS V14.01,2013-07-19 15:36:00,
2013-07-19 11:41:00,85.0,69.1,30.01,West,270,14.0,16.0,59,0.00,,---,0.00,VWS V14.01,2013-07-19 15:41:00,
2013-07-19 11:46:00,86.0,70.0,30.01,WSW,248,14.0,19.0,59,0.00,,---,0.00,VWS V14.01,2013-07-19 15:46:00,
2013-07-19 11:51:00,86.0,70.5,30.01,WNW,292,8.0,19.0,60,0.00,,---,0.00,VWS V14.01,2013-07-19 15:51:00,
2013-07-19 11:56:00,86.0,69.5,30.00,South,180,5.0,19.0,58,0.00,,---,0.00,VWS V14.01,2013-07-19 15:56:00,
2013-07-19 12:01:00,86.0,69.0,30.00,WSW,248,9.0,19.0,57,0.00,,---,0.00,VWS V14.01,2013-07-19 16:01:00,
2013-07-19 12:07:00,87.0,69.9,30.00,WSW,248,8.0,19.0,57,0.00,,---,0.00,VWS V14.01,2013-07-19 16:07:00,
2013-07-19 12:12:00,86.0,69.0,30.00,WNW,292,17.0,19.0,57,0.00,,---,0.00,VWS V14.01,2013-07-19 16:12:00,
2013-07-19 12:17:00,87.0,69.9,29.99,SW,225,13.0,19.0,57,0.00,,---,0.00,VWS V14.01,2013-07-19 16:17:00,
2013-07-19 12:22:00,87.0,69.4,30.00,WSW,248,14.0,20.0,56,0.00,,---,0.00,VWS V14.01,2013-07-19 16:22:00,
2013-07-19 12:27:00,86.0,68.5,30.00,WSW,248,5.0,20.0,56,0.00,,---,0.00,VWS V14.01,2013-07-19 16:27:00,
2013-07-19 12:32:00,87.0,70.4,29.99,WNW,292,16.0,21.0,58,0.00,,---,0.00,VWS V14.01,2013-07-19 16:32:00,
2013-07-19 12:37:00,87.0,68.9,29.98,WSW,248,11.0,21.0,55,0.00,,---,0.00,VWS V14.01,2013-07-19 16:37:00,
2013-07-19 12:42:00,87.0,67.8,29.98,WSW,248,11.0,20.0,53,0.00,,---,0.00,VWS V14.01,2013-07-19 16:42:00,
2013-07-19 12:47:00,88.0,69.3,29.99,WSW,248,16.0,20.0,54,0.00,,---,0.00,VWS V14.01,2013-07-19 16:47:00,
2013-07-19 12:53:00,89.0,69.7,29.98,WNW,292,19.0,20.0,53,0.00,,---,0.00,VWS V14.01,2013-07-19 16:53:00,
2013-07-19 12:58:00,88.0,68.2,29.98,WSW,248,13.0,24.0,52,0.00,,---,0.00,VWS V14.01,2013-07-19 16:58:00,
2013-07-19 13:03:00,88.0,68.7,29.98,West,270,14.0,19.0,53,0.00,,---,0.00,VWS V14.01,2013-07-19 17:03:00,
2013-07-19 13:08:00,87.0,67.8,29.98,WSW,248,11.0,21.0,53,0.00,,---,0.00,VWS V14.01,2013-07-19 17:08:00,
2013-07-19 13:13:00,88.0,69.3,29.98,WNW,292,11.0,23.0,54,0.00,,---,0.00,VWS V14.01,2013-07-19 17:13:00,
2013-07-19 13:18:00,87.0,68.4,29.97,WNW,292,8.0,23.0,54,0.00,,---,0.00,VWS V14.01,2013-07-19 17:18:00,
2013-07-19 13:23:00,87.0,67.8,29.97,WSW,248,13.0,21.0,53,0.00,,---,0.00,VWS V14.01,2013-07-19 17:23:00,
2013-07-19 13:29:00,87.0,69.4,29.97,WSW,248,8.0,21.0,56,0.00,,---,0.00,VWS V14.01,2013-07-19 17:29:00,
2013-07-19 13:34:00,87.0,67.8,29.97,WSW,248,13.0,21.0,53,0.00,,---,0.00,VWS V14.01,2013-07-19 17:34:00,
2013-07-19 13:39:00,87.0,70.4,29.97,WNW,292,12.0,21.0,58,0.00,,---,0.00,VWS V14.01,2013-07-19 17:39:00,
2013-07-19 13:44:00,86.0,71.5,29.97,West,270,4.0,12.0,62,0.00,,---,0.00,VWS V14.01,2013-07-19 17:44:00,
2013-07-19 13:49:00,85.0,70.5,29.97,West,270,3.0,14.0,62,0.00,,---,0.00,VWS V14.01,2013-07-19 17:49:00,
2013-07-19 13:54:00,84.0,71.0,29.97,NW,315,10.0,14.0,65,0.00,,---,0.00,VWS V14.01,2013-07-19 17:54:00,
2013-07-19 13:59:00,84.0,72.3,29.96,NNW,338,5.0,14.0,68,0.00,,---,0.00,VWS V14.01,2013-07-19 17:59:00,
2013-07-19 14:04:00,84.0,72.7,29.96,SW,225,5.0,14.0,69,0.00,,---,0.00,VWS V14.01,2013-07-19 18:04:00,
2013-07-19 14:09:00,83.0,72.2,29.96,NNW,338,7.0,14.0,70,0.00,,---,0.00,VWS V14.01,2013-07-19 18:09:00,
2013-07-19 14:15:00,83.0,71.8,29.96,WNW,292,5.0,14.0,69,0.00,,---,0.00,VWS V14.01,2013-07-19 18:15:00,
2013-07-19 14:20:00,83.0,70.9,29.96,WNW,292,7.0,14.0,67,0.00,,---,0.00,VWS V14.01,2013-07-19 18:20:00,
2013-07-19 14:25:00,84.0,71.9,29.95,NNE,22,3.0,11.0,67,0.00,,---,0.00,VWS V14.01,2013-07-19 18:25:00,
2013-07-19 14:30:00,84.0,71.4,29.95,WNW,292,1.0,11.0,66,0.00,,---,0.00,VWS V14.01,2013-07-19 18:30:00,
2013-07-19 14:35:00,84.0,72.3,29.95,WNW,292,10.0,13.0,68,0.00,,---,0.00,VWS V14.01,2013-07-19 18:35:00,
2013-07-19 14:40:00,83.0,70.9,29.96,WSW,248,12.0,15.0,67,0.00,,---,0.00,VWS V14.01,2013-07-19 18:40:00,
2013-07-19 14:45:00,83.0,71.8,29.95,WSW,248,10.0,14.0,69,0.00,,---,0.00,VWS V14.01,2013-07-19 18:45:00,
2013-07-19 14:50:00,81.0,72.7,29.95,WNW,292,12.0,16.0,76,0.03,,---,0.03,VWS V14.01,2013-07-19 18:50:00,
2013-07-19 14:56:00,79.0,72.3,29.96,WSW,248,10.0,19.0,80,0.06,,---,0.06,VWS V14.01,2013-07-19 18:56:00,
2013-07-19 15:01:00,78.0,71.7,29.95,WSW,248,6.0,13.0,81,0.06,,---,0.06,VWS V14.01,2013-07-19 19:01:00,
2013-07-19 15:06:00,77.0,71.4,29.95,SW,225,11.0,13.0,83,0.06,,---,0.06,VWS V14.01,2013-07-19 19:06:00,
2013-07-19 15:11:00,77.0,71.8,29.95,SW,225,9.0,13.0,84,0.07,,---,0.07,VWS V14.01,2013-07-19 19:11:00,
2013-07-19 15:16:00,76.0,70.1,29.94,SW,225,7.0,15.0,82,0.07,,---,0.07,VWS V14.01,2013-07-19 19:16:00,
2013-07-19 15:21:00,76.0,70.1,29.95,WSW,248,11.0,11.0,82,0.07,,---,0.07,VWS V14.01,2013-07-19 19:21:00,
2013-07-19 15:26:00,77.0,70.7,29.96,SSW,202,8.0,14.0,81,0.07,,---,0.07,VWS V14.01,2013-07-19 19:26:00,
2013-07-19 15:32:00,78.0,70.2,29.94,SW,225,6.0,14.0,77,0.07,,---,0.07,VWS V14.01,2013-07-19 19:32:00,
2013-07-19 15:37:00,78.0,69.1,29.94,SSW,202,7.0,14.0,74,0.07,,---,0.07,VWS V14.01,2013-07-19 19:37:00,
2013-07-19 15:42:00,79.0,69.6,29.93,SW,225,8.0,10.0,73,0.07,,---,0.07,VWS V14.01,2013-07-19 19:42:00,
2013-07-19 15:47:00,80.0,70.6,29.93,SW,225,8.0,14.0,73,0.07,,---,0.07,VWS V14.01,2013-07-19 19:47:00,
2013-07-19 15:52:00,80.0,70.6,29.92,WSW,248,9.0,14.0,73,0.07,,---,0.07,VWS V14.01,2013-07-19 19:52:00,
2013-07-19 15:57:00,81.0,71.1,29.92,West,270,12.0,16.0,72,0.07,,---,0.07,VWS V14.01,2013-07-19 19:57:00,
2013-07-19 16:02:00,81.0,70.7,29.92,SSW,202,12.0,13.0,71,0.01,,---,0.07,VWS V14.01,2013-07-19 20:02:00,
2013-07-19 16:07:00,82.0,70.8,29.92,WSW,248,10.0,16.0,69,0.01,,---,0.07,VWS V14.01,2013-07-19 20:07:00,
2013-07-19 16:13:00,83.0,71.4,29.91,WSW,248,10.0,16.0,68,0.01,,---,0.07,VWS V14.01,2013-07-19 20:13:00,
2013-07-19 16:18:00,84.0,71.9,29.91,West,270,14.0,17.0,67,0.01,,---,0.07,VWS V14.01,2013-07-19 20:18:00,
2013-07-19 16:23:00,84.0,70.5,29.91,WSW,248,16.0,19.0,64,0.00,,---,0.07,VWS V14.01,2013-07-19 20:23:00,
2013-07-19 16:28:00,85.0,72.4,29.91,WNW,292,6.0,19.0,66,0.00,,---,0.07,VWS V14.01,2013-07-19 20:28:00,
2013-07-19 16:33:00,85.0,71.5,29.91,WSW,248,13.0,19.0,64,0.00,,---,0.07,VWS V14.01,2013-07-19 20:33:00,
2013-07-19 16:38:00,85.0,71.9,29.91,West,270,11.0,19.0,65,0.00,,---,0.07,VWS V14.01,2013-07-19 20:38:00,
2013-07-19 16:43:00,86.0,73.3,29.91,SSW,202,8.0,11.0,66,0.00,,---,0.07,VWS V14.01,2013-07-19 20:43:00,
2013-07-19 16:49:00,86.0,71.9,29.90,WSW,248,7.0,17.0,63,0.00,,---,0.07,VWS V14.01,2013-07-19 20:49:00,
2013-07-19 16:54:00,86.0,72.4,29.90,WSW,248,8.0,17.0,64,0.00,,---,0.07,VWS V14.01,2013-07-19 20:54:00,
2013-07-19 16:59:00,85.0,70.1,29.90,SW,225,9.0,18.0,61,0.00,,---,0.07,VWS V14.01,2013-07-19 20:59:00,
2013-07-19 17:04:00,85.0,70.5,29.90,SW,225,10.0,13.0,62,0.00,,---,0.07,VWS V14.01,2013-07-19 21:04:00,
2013-07-19 17:09:00,85.0,70.1,29.90,WSW,248,11.0,14.0,61,0.00,,---,0.07,VWS V14.01,2013-07-19 21:09:00,
2013-07-19 17:14:00,85.0,71.0,29.90,SW,225,11.0,14.0,63,0.00,,---,0.07,VWS V14.01,2013-07-19 21:14:00,
2013-07-19 17:19:00,85.0,70.5,29.90,SW,225,9.0,14.0,62,0.00,,---,0.07,VWS V14.01,2013-07-19 21:19:00,
2013-07-19 17:24:00,86.0,71.9,29.89,SW,225,12.0,13.0,63,0.00,,---,0.07,VWS V14.01,2013-07-19 21:24:00,
2013-07-19 17:30:00,86.0,71.0,29.89,WSW,248,12.0,17.0,61,0.00,,---,0.07,VWS V14.01,2013-07-19 21:30:00,
2013-07-19 17:35:00,86.0,71.5,29.89,West,270,10.0,17.0,62,0.00,,---,0.07,VWS V14.01,2013-07-19 21:35:00,
2013-07-19 17:40:00,86.0,71.5,29.89,WSW,248,9.0,17.0,62,0.00,,---,0.07,VWS V14.01,2013-07-19 21:40:00,
2013-07-19 17:45:00,87.0,71.9,29.89,SW,225,6.0,11.0,61,0.00,,---,0.07,VWS V14.01,2013-07-19 21:45:00,
2013-07-19 17:50:00,87.0,71.9,29.89,WSW,248,11.0,15.0,61,0.00,,---,0.07,VWS V14.01,2013-07-19 21:50:00,
2013-07-19 17:55:00,86.0,70.5,29.89,SW,225,5.0,15.0,60,0.00,,---,0.07,VWS V14.01,2013-07-19 21:55:00,
2013-07-19 18:00:00,86.0,70.5,29.89,West,270,9.0,10.0,60,0.00,,---,0.07,VWS V14.01,2013-07-19 22:00:00,
2013-07-19 18:05:00,86.0,70.5,29.89,WSW,248,15.0,18.0,60,0.00,,---,0.07,VWS V14.01,2013-07-19 22:05:00,
2013-07-19 18:11:00,87.0,71.4,29.88,WSW,248,5.0,18.0,60,0.00,,---,0.07,VWS V14.01,2013-07-19 22:11:00,
2013-07-19 18:16:00,87.0,70.9,29.88,WSW,248,5.0,18.0,59,0.00,,---,0.07,VWS V14.01,2013-07-19 22:16:00,
2013-07-19 18:21:00,87.0,70.9,29.88,WSW,248,8.0,14.0,59,0.00,,---,0.07,VWS V14.01,2013-07-19 22:21:00,
2013-07-19 18:26:00,86.0,70.0,29.88,SW,225,11.0,16.0,59,0.00,,---,0.07,VWS V14.01,2013-07-19 22:26:00,
2013-07-19 18:31:00,86.0,70.5,29.88,West,270,9.0,19.0,60,0.00,,---,0.07,VWS V14.01,2013-07-19 22:31:00,
2013-07-19 18:36:00,86.0,71.0,29.90,SW,225,9.0,19.0,61,0.00,,---,0.07,VWS V14.01,2013-07-19 22:36:00,
2013-07-19 18:41:00,85.0,70.1,29.89,SW,225,5.0,10.0,61,0.00,,---,0.07,VWS V14.01,2013-07-19 22:41:00,
2013-07-19 18:47:00,85.0,70.5,29.90,WSW,248,7.0,16.0,62,0.00,,---,0.07,VWS V14.01,2013-07-19 22:47:00,
2013-07-19 18:52:00,85.0,71.0,29.90,SW,225,10.0,16.0,63,0.00,,---,0.07,VWS V14.01,2013-07-19 22:52:00,
2013-07-19 18:57:00,85.0,71.0,29.90,SW,225,5.0,16.0,63,0.00,,---,0.07,VWS V14.01,2013-07-19 22:57:00,
2013-07-19 19:02:00,85.0,71.0,29.90,SW,225,8.0,15.0,63,0.00,,---,0.07,VWS V14.01,2013-07-19 23:02:00,
2013-07-19 19:07:00,85.0,71.0,29.90,SW,225,7.0,15.0,63,0.00,,---,0.07,VWS V14.01,2013-07-19 23:07:00,
2013-07-19 19:12:00,85.0,71.0,29.90,SW,225,7.0,15.0,63,0.00,,---,0.07,VWS V14.01,2013-07-19 23:12:00,
2013-07-19 19:17:00,85.0,71.5,29.90,SW,225,4.0,15.0,64,0.00,,---,0.07,VWS V14.01,2013-07-19 23:17:00,
2013-07-19 19:22:00,85.0,71.5,29.90,SW,225,6.0,11.0,64,0.00,,---,0.07,VWS V14.01,2013-07-19 23:22:00,
2013-07-19 19:28:00,85.0,71.5,29.91,SW,225,4.0,11.0,64,0.00,,---,0.07,VWS V14.01,2013-07-19 23:28:00,
2013-07-19 19:33:00,85.0,71.5,29.91,SSW,202,4.0,19.0,64,0.00,,---,0.07,VWS V14.01,2013-07-19 23:33:00,
2013-07-19 19:38:00,84.0,70.1,29.90,WSW,248,10.0,19.0,63,0.00,,---,0.07,VWS V14.01,2013-07-19 23:38:00,
2013-07-19 19:43:00,84.0,70.1,29.90,SW,225,8.0,11.0,63,0.00,,---,0.07,VWS V14.01,2013-07-19 23:43:00,
2013-07-19 19:48:00,84.0,70.5,29.90,WSW,248,10.0,12.0,64,0.00,,---,0.07,VWS V14.01,2013-07-19 23:48:00,
2013-07-19 19:53:00,84.0,70.5,29.90,SSW,202,5.0,12.0,64,0.00,,---,0.07,VWS V14.01,2013-07-19 23:53:00,
2013-07-19 19:58:00,83.0,70.0,29.90,WSW,248,11.0,14.0,65,0.00,,---,0.07,VWS V14.01,2013-07-19 23:58:00,
2013-07-19 20:03:00,83.0,69.6,29.90,SW,225,9.0,16.0,64,0.00,,---,0.07,VWS V14.01,2013-07-20 00:03:00,
2013-07-19 20:09:00,83.0,69.6,29.89,West,270,10.0,16.0,64,0.00,,---,0.07,VWS V14.01,2013-07-20 00:09:00,
2013-07-19 20:14:00,83.0,69.6,29.89,WSW,248,8.0,16.0,64,0.00,,---,0.07,VWS V14.01,2013-07-20 00:14:00,
2013-07-19 20:19:00,83.0,70.0,29.89,WNW,292,6.0,16.0,65,0.00,,---,0.07,VWS V14.01,2013-07-20 00:19:00,
2013-07-19 20:24:00,83.0,70.0,29.88,West,270,4.0,8.0,65,0.00,,---,0.07,VWS V14.01,2013-07-20 00:24:00,
2013-07-19 20:29:00,83.0,70.0,29.88,WSW,248,4.0,8.0,65,0.00,,---,0.07,VWS V14.01,2013-07-20 00:29:00,
2013-07-19 20:34:00,83.0,70.5,29.88,WNW,292,4.0,8.0,66,0.00,,---,0.07,VWS V14.01,2013-07-20 00:34:00,
2013-07-19 20:39:00,82.0,69.5,29.87,SW,225,4.0,9.0,66,0.00,,---,0.07,VWS V14.01,2013-07-20 00:39:00,
2013-07-19 20:44:00,82.0,69.5,29.86,SW,225,10.0,11.0,66,0.00,,---,0.07,VWS V14.01,2013-07-20 00:44:00,
2013-07-19 20:49:00,82.0,69.5,29.86,SW,225,10.0,18.0,66,0.00,,---,0.07,VWS V14.01,2013-07-20 00:49:00,
2013-07-19 20:55:00,82.0,69.5,29.86,South,180,9.0,18.0,66,0.00,,---,0.07,VWS V14.01,2013-07-20 00:55:00,
2013-07-19 21:00:00,82.0,69.1,29.86,SSW,202,5.0,18.0,65,0.00,,---,0.07,VWS V14.01,2013-07-20 01:00:00,
2013-07-19 21:05:00,81.0,68.6,29.86,SW,225,8.0,11.0,66,0.00,,---,0.07,VWS V14.01,2013-07-20 01:05:00,
2013-07-19 21:10:00,81.0,68.6,29.86,SW,225,6.0,11.0,66,0.00,,---,0.07,VWS V14.01,2013-07-20 01:10:00,
2013-07-19 21:15:00,81.0,69.0,29.86,WSW,248,6.0,11.0,67,0.00,,---,0.07,VWS V14.01,2013-07-20 01:15:00,
2013-07-19 21:20:00,81.0,69.0,29.87,SW,225,8.0,13.0,67,0.00,,---,0.07,VWS V14.01,2013-07-20 01:20:00,
2013-07-19 21:25:00,81.0,69.4,29.86,SW,225,12.0,13.0,68,0.00,,---,0.07,VWS V14.01,2013-07-20 01:25:00,
2013-07-19 21:30:00,81.0,69.4,29.87,WSW,248,10.0,13.0,68,0.00,,---,0.07,VWS V14.01,2013-07-20 01:30:00,
2013-07-19 21:35:00,80.0,68.5,29.88,WSW,248,6.0,13.0,68,0.00,,---,0.07,VWS V14.01,2013-07-20 01:35:00,
2013-07-19 21:40:00,80.0,68.5,29.88,West,270,8.0,8.0,68,0.00,,---,0.07,VWS V14.01,2013-07-20 01:40:00,
2013-07-19 21:46:00,80.0,68.5,29.88,SW,225,10.0,16.0,68,0.00,,---,0.07,VWS V14.01,2013-07-20 01:46:00,
2013-07-19 21:51:00,80.0,68.9,29.88,West,270,6.0,16.0,69,0.00,,---,0.07,VWS V14.01,2013-07-20 01:51:00,
2013-07-19 21:56:00,80.0,68.9,29.89,WSW,248,13.0,16.0,69,0.00,,---,0.07,VWS V14.01,2013-07-20 01:56:00,
2013-07-19 22:01:00,80.0,68.9,29.89,SW,225,6.0,8.0,69,0.00,,---,0.07,VWS V14.01,2013-07-20 02:01:00,
2013-07-19 22:06:00,80.0,69.3,29.89,SW,225,8.0,15.0,70,0.00,,---,0.07,VWS V14.01,2013-07-20 02:06:00,
2013-07-19 22:11:00,79.0,68.4,29.89,WSW,248,10.0,15.0,70,0.00,,---,0.07,VWS V14.01,2013-07-20 02:11:00,
2013-07-19 22:16:00,79.0,68.8,29.89,SW,225,10.0,15.0,71,0.00,,---,0.07,VWS V14.01,2013-07-20 02:16:00,
2013-07-19 22:21:00,79.0,68.8,29.90,SW,225,11.0,14.0,71,0.00,,---,0.07,VWS V14.01,2013-07-20 02:21:00,
2013-07-19 22:26:00,79.0,69.2,29.89,SW,225,6.0,16.0,72,0.00,,---,0.07,VWS V14.01,2013-07-20 02:26:00,
2013-07-19 22:31:00,79.0,69.2,29.89,SSW,202,11.0,18.0,72,0.00,,---,0.07,VWS V14.01,2013-07-20 02:31:00,
2013-07-19 22:36:00,79.0,69.2,29.89,SSW,202,10.0,18.0,72,0.00,,---,0.07,VWS V14.01,2013-07-20 02:36:00,
2013-07-19 22:42:00,79.0,69.2,29.89,WSW,248,16.0,19.0,72,0.00,,---,0.07,VWS V14.01,2013-07-20 02:42:00,
2013-07-19 22:47:00,79.0,69.2,29.89,SW,225,7.0,19.0,72,0.00,,---,0.07,VWS V14.01,2013-07-20 02:47:00,
2013-07-19 22:52:00,78.0,68.2,29.89,West,270,9.0,19.0,72,0.00,,---,0.07,VWS V14.01,2013-07-20 02:52:00,
2013-07-19 22:57:00,78.0,68.2,29.88,WSW,248,11.0,19.0,72,0.00,,---,0.07,VWS V14.01,2013-07-20 02:57:00,
2013-07-19 23:02:00,78.0,68.2,29.89,SW,225,13.0,17.0,72,0.00,,---,0.07,VWS V14.01,2013-07-20 03:02:00,
2013-07-19 23:07:00,78.0,68.2,29.88,SSW,202,6.0,17.0,72,0.00,,---,0.07,VWS V14.01,2013-07-20 03:07:00,
2013-07-19 23:12:00,78.0,68.2,29.88,WSW,248,10.0,17.0,72,0.00,,---,0.07,VWS V14.01,2013-07-20 03:12:00,
2013-07-19 23:17:00,78.0,68.2,29.88,West,270,14.0,17.0,72,0.00,,---,0.07,VWS V14.01,2013-07-20 03:17:00,
2013-07-19 23:22:00,78.0,68.2,29.89,WSW,248,11.0,15.0,72,0.00,,---,0.07,VWS V14.01,2013-07-20 03:22:00,
2013-07-19 23:27:00,78.0,68.2,29.90,WSW,248,10.0,15.0,72,0.00,,---,0.07,VWS V14.01,2013-07-20 03:27:00,
2013-07-19 23:32:00,78.0,68.2,29.90,WSW,248,9.0,16.0,72,0.00,,---,0.07,VWS V14.01,2013-07-20 03:32:00,
2013-07-19 23:38:00,78.0,68.7,29.90,WSW,248,10.0,19.0,73,0.00,,---,0.07,VWS V14.01,2013-07-20 03:38:00,
2013-07-19 23:43:00,77.0,67.7,29.89,SSW,202,8.0,19.0,73,0.00,,---,0.07,VWS V14.01,2013-07-20 03:43:00,
2013-07-19 23:48:00,77.0,68.1,29.89,WSW,248,13.0,22.0,74,0.00,,---,0.07,VWS V14.01,2013-07-20 03:48:00,
2013-07-19 23:53:00,77.0,68.1,29.89,SW,225,8.0,22.0,74,0.00,,---,0.07,VWS V14.01,2013-07-20 03:53:00,
2013-07-19 23:58:00,77.0,68.1,29.88,SW,225,10.0,22.0,74,0.00,,---,0.07,VWS V14.01,2013-07-20 03:58:00,